Starlink 2504

operational
NORAD ID: 48328 Int'l Des: 2021-036 Owner: SPXS Country: US Constellation: starlink
LEOCIRCULARSTARLINK_TYPE

Starlink 2504について

説明を読み込み中...

リアルタイム位置

3D地球を読み込み中...

次回通過

高度履歴

Altitude vs Time

uPlot chart will show altitude changes over time

軌道要素

1 48328U 21036BE 25352.48020117 -.00001188 00000-0 -60891-4 0 9995
2 48328 53.0543 106.1775 0001365 115.0884 245.0247 15.06406795255791
Epoch: Dec 18, 2025 • Age: 32 hours

現在のステータス

高度 547.5 km
速度 7.59 km/s
衛星直下点 14.89°N, 91.22°E
打ち上げ日 Apr 29, 2021
運用期間 4.6 years
タイプ internet

技術仕様

分類 Payload
質量 260.00 kg
乾燥質量 248.00 kg
総質量 260.00 kg
長さ 0.20 m
直径 2.80 m
スパン 9.00 m
形状 Box + pan
製造者 SPXS
バスタイプ Starlink
フェーズステータス In Orbit
所有者/国 SPXS/US

大規模コンステレーション

Loading constellations...